カタログに戻る

CZ-6A DEB

運用中PO
NORAD 60633·DEBRIS·🇨🇳 China

打ち上げ Aug 6, 2024 から Taiyuan Satellite Launch Center

Loading…

次のパス (今後24時間)

TLE

最新Source: Space-Track

元期: Sep 14, 2026, 22:59 UTC

1 60633U 24140AJ  26257.95813992  .00000241  00000-0  11145-3 0  9999
2 60633  89.0134 266.6373 0054943 256.1312 103.3761 14.16975147108716

AllMySatでCZ-6A DEBをリアルタイム追跡

Download on the App Store